Time,TemperatureF,DewpointF,PressureIn,WindDirection,WindDirectionDegrees,WindSpeedMPH,WindSpeedGustMPH,Humidity,HourlyPrecipIn,Conditions,Clouds,dailyrainin,SolarRadiationWatts/m^2,SoftwareType,DateUTC
2013-06-13 00:01:00,45.0,36.0,-100.00,North,351,3.0,13.0,70,0.00,,,0.00,0.000000,,2013-06-13 07:01:00,
2013-06-13 00:11:00,45.0,36.0,-100.00,North,351,3.0,13.0,70,0.00,,,0.00,0.000000,,2013-06-13 07:11:00,
2013-06-13 00:42:00,43.0,35.0,-100.00,North,360,1.0,10.0,73,0.00,,,0.00,0.000000,,2013-06-13 07:42:00,
2013-06-13 00:52:00,43.0,35.0,-100.00,North,360,1.0,10.0,73,0.00,,,0.00,0.000000,,2013-06-13 07:52:00,
2013-06-13 01:01:00,43.0,35.0,-100.00,North,360,1.0,10.0,73,0.00,,,0.00,0.000000,,2013-06-13 08:01:00,
2013-06-13 01:11:00,43.0,35.0,-100.00,North,360,1.0,10.0,73,0.00,,,0.00,0.000000,,2013-06-13 08:11:00,
2013-06-13 01:43:00,44.0,36.0,-100.00,NNE,23,5.0,9.0,72,0.00,,,0.00,0.000000,,2013-06-13 08:43:00,
2013-06-13 01:52:00,44.0,36.0,-100.00,NNE,23,5.0,9.0,72,0.00,,,0.00,0.000000,,2013-06-13 08:52:00,
2013-06-13 02:01:00,44.0,36.0,-100.00,NNE,23,5.0,9.0,72,0.00,,,0.00,0.000000,,2013-06-13 09:01:00,
2013-06-13 02:11:00,44.0,36.0,-100.00,NNE,23,5.0,9.0,72,0.00,,,0.00,0.000000,,2013-06-13 09:11:00,
2013-06-13 02:42:00,42.0,36.0,-100.00,SSW,205,1.0,11.0,79,0.00,,,0.00,0.000000,,2013-06-13 09:42:00,
2013-06-13 02:52:00,42.0,36.0,-100.00,SSW,205,1.0,11.0,79,0.00,,,0.00,0.000000,,2013-06-13 09:52:00,
2013-06-13 03:01:00,42.0,36.0,-100.00,SSW,205,1.0,11.0,79,0.00,,,0.00,0.000000,,2013-06-13 10:01:00,
2013-06-13 03:11:00,42.0,36.0,-100.00,SSW,205,1.0,11.0,79,0.00,,,0.00,0.000000,,2013-06-13 10:11:00,
2013-06-13 03:43:00,41.0,36.0,-100.00,SE,145,0.0,5.0,82,0.00,,,0.00,0.000000,,2013-06-13 10:43:00,
2013-06-13 03:53:00,41.0,36.0,-100.00,SE,145,0.0,5.0,82,0.00,,,0.00,0.000000,,2013-06-13 10:53:00,
2013-06-13 04:01:00,41.0,36.0,-100.00,SE,145,0.0,5.0,82,0.00,,,0.00,0.000000,,2013-06-13 11:01:00,
2013-06-13 04:11:00,41.0,36.0,-100.00,SE,145,0.0,5.0,82,0.00,,,0.00,0.000000,,2013-06-13 11:11:00,
2013-06-13 04:42:00,42.0,36.0,-100.00,ESE,110,1.0,4.0,78,0.00,,,0.00,0.000000,,2013-06-13 11:42:00,
2013-06-13 04:52:00,42.0,36.0,-100.00,ESE,110,1.0,4.0,78,0.00,,,0.00,0.000000,,2013-06-13 11:52:00,
2013-06-13 05:01:00,42.0,36.0,-100.00,ESE,110,1.0,4.0,78,0.00,,,0.00,0.000000,,2013-06-13 12:01:00,
2013-06-13 05:11:00,42.0,36.0,-100.00,ESE,110,1.0,4.0,78,0.00,,,0.00,0.000000,,2013-06-13 12:11:00,
2013-06-13 05:43:00,42.0,37.0,-100.00,SSE,162,2.0,5.0,81,0.00,,,0.00,1.000000,,2013-06-13 12:43:00,
2013-06-13 05:52:00,42.0,37.0,-100.00,SSE,162,2.0,5.0,81,0.00,,,0.00,1.000000,,2013-06-13 12:52:00,
2013-06-13 06:01:00,42.0,37.0,-100.00,SSE,162,2.0,5.0,81,0.00,,,0.00,1.000000,,2013-06-13 13:01:00,
2013-06-13 06:11:00,42.0,37.0,-100.00,SSE,162,2.0,5.0,81,0.00,,,0.00,1.000000,,2013-06-13 13:11:00,
2013-06-13 06:43:00,44.0,37.0,-100.00,West,263,2.0,7.0,76,0.00,,,0.00,31.000000,,2013-06-13 13:43:00,
2013-06-13 06:53:00,44.0,37.0,-100.00,West,263,2.0,7.0,76,0.00,,,0.00,31.000000,,2013-06-13 13:53:00,
2013-06-13 07:02:00,44.0,37.0,-100.00,West,263,2.0,7.0,76,0.00,,,0.00,31.000000,,2013-06-13 14:02:00,
2013-06-13 07:11:00,44.0,37.0,-100.00,West,263,2.0,7.0,76,0.00,,,0.00,31.000000,,2013-06-13 14:11:00,
2013-06-13 07:43:00,44.0,37.0,-100.00,SW,230,2.0,7.0,77,0.00,,,0.00,35.000000,,2013-06-13 14:43:00,
2013-06-13 07:53:00,44.0,37.0,-100.00,SW,230,2.0,7.0,77,0.00,,,0.00,35.000000,,2013-06-13 14:53:00,
2013-06-13 08:01:00,44.0,37.0,-100.00,SW,230,2.0,7.0,77,0.00,,,0.00,35.000000,,2013-06-13 15:01:00,
2013-06-13 08:11:00,44.0,37.0,-100.00,SW,230,2.0,7.0,77,0.00,,,0.00,35.000000,,2013-06-13 15:11:00,
2013-06-13 08:43:00,48.0,38.0,-100.00,West,265,2.0,11.0,69,0.00,,,0.00,168.000000,,2013-06-13 15:43:00,
2013-06-13 08:53:00,48.0,38.0,-100.00,West,265,2.0,11.0,69,0.00,,,0.00,168.000000,,2013-06-13 15:53:00,
2013-06-13 09:01:00,48.0,38.0,-100.00,West,265,2.0,11.0,69,0.00,,,0.00,168.000000,,2013-06-13 16:01:00,
2013-06-13 09:11:00,48.0,38.0,-100.00,West,265,2.0,11.0,69,0.00,,,0.00,168.000000,,2013-06-13 16:11:00,
2013-06-13 10:43:00,53.0,38.0,-100.00,SW,230,5.0,12.0,56,-99.99,,,0.00,413.000000,,2013-06-13 17:43:00,
2013-06-13 10:53:00,53.0,38.0,-100.00,SW,230,5.0,12.0,56,-99.99,,,0.00,413.000000,,2013-06-13 17:53:00,
2013-06-13 11:02:00,53.0,38.0,-100.00,SW,230,5.0,12.0,56,-99.99,,,0.00,413.000000,,2013-06-13 18:02:00,
2013-06-13 11:11:00,53.0,38.0,-100.00,SW,230,5.0,12.0,56,-99.99,,,0.00,413.000000,,2013-06-13 18:11:00,
2013-06-13 11:43:00,57.0,39.0,-100.00,WSW,240,4.0,14.0,51,0.00,,,0.00,548.000000,,2013-06-13 18:43:00,
2013-06-13 11:52:00,57.0,39.0,-100.00,WSW,240,4.0,14.0,51,0.00,,,0.00,548.000000,,2013-06-13 18:52:00,
2013-06-13 12:01:00,57.0,39.0,-100.00,WSW,240,4.0,14.0,51,0.00,,,0.00,548.000000,,2013-06-13 19:01:00,
2013-06-13 14:43:00,58.0,38.0,-100.00,West,260,8.0,20.0,47,-99.99,,,0.00,949.000000,,2013-06-13 21:43:00,
2013-06-13 15:43:00,56.0,37.0,-100.00,WSW,249,9.0,21.0,49,-99.99,,,0.00,884.000000,,2013-06-13 22:43:00,
2013-06-13 15:52:00,56.0,37.0,-100.00,WSW,249,9.0,21.0,49,-99.99,,,0.00,884.000000,,2013-06-13 22:52:00,
2013-06-13 16:01:00,56.0,37.0,-100.00,WSW,249,9.0,21.0,49,-99.99,,,0.00,884.000000,,2013-06-13 23:01:00,
2013-06-13 16:11:00,56.0,37.0,-100.00,WSW,249,9.0,21.0,49,-99.99,,,0.00,884.000000,,2013-06-13 23:11:00,
2013-06-13 16:43:00,56.0,38.0,-100.00,West,270,7.0,27.0,50,0.00,,,0.00,806.000000,,2013-06-13 23:43:00,
2013-06-13 16:52:00,56.0,38.0,-100.00,West,270,7.0,27.0,50,0.00,,,0.00,806.000000,,2013-06-13 23:52:00,
2013-06-13 17:01:00,56.0,38.0,-100.00,West,270,7.0,27.0,50,0.00,,,0.00,806.000000,,2013-06-14 00:01:00,
2013-06-13 17:11:00,56.0,38.0,-100.00,West,270,7.0,27.0,50,0.00,,,0.00,806.000000,,2013-06-14 00:11:00,
2013-06-13 17:43:00,54.0,39.0,-100.00,WSW,249,9.0,23.0,57,0.00,,,0.00,655.000000,,2013-06-14 00:43:00,
2013-06-13 17:53:00,54.0,39.0,-100.00,WSW,249,9.0,23.0,57,0.00,,,0.00,655.000000,,2013-06-14 00:53:00,
2013-06-13 18:01:00,54.0,39.0,-100.00,WSW,249,9.0,23.0,57,0.00,,,0.00,655.000000,,2013-06-14 01:01:00,
2013-06-13 18:11:00,54.0,39.0,-100.00,WSW,249,9.0,23.0,57,0.00,,,0.00,655.000000,,2013-06-14 01:11:00,
2013-06-13 18:43:00,53.0,38.0,-100.00,West,274,6.0,20.0,57,0.00,,,-99.99,485.000000,,2013-06-14 01:43:00,
2013-06-13 18:52:00,53.0,38.0,-100.00,West,274,6.0,20.0,57,0.00,,,-99.99,485.000000,,2013-06-14 01:52:00,
2013-06-13 19:02:00,53.0,38.0,-100.00,West,274,6.0,20.0,57,0.00,,,-99.99,485.000000,,2013-06-14 02:02:00,
2013-06-13 19:11:00,53.0,38.0,-100.00,West,274,6.0,20.0,57,0.00,,,-99.99,485.000000,,2013-06-14 02:11:00,
2013-06-13 19:43:00,51.0,38.0,-100.00,West,279,4.0,15.0,60,0.00,,,0.00,257.000000,,2013-06-14 02:43:00,
2013-06-13 19:52:00,51.0,38.0,-100.00,West,279,4.0,15.0,60,0.00,,,0.00,257.000000,,2013-06-14 02:52:00,
2013-06-13 20:02:00,51.0,38.0,-100.00,West,279,4.0,15.0,60,0.00,,,0.00,257.000000,,2013-06-14 03:02:00,
2013-06-13 20:11:00,51.0,38.0,-100.00,West,279,4.0,15.0,60,0.00,,,0.00,257.000000,,2013-06-14 03:11:00,
2013-06-13 20:43:00,47.0,38.0,-100.00,North,1,3.0,21.0,71,0.00,,,0.00,47.000000,,2013-06-14 03:43:00,
2013-06-13 20:53:00,47.0,38.0,-100.00,North,1,3.0,21.0,71,0.00,,,0.00,47.000000,,2013-06-14 03:53:00,
2013-06-13 21:01:00,47.0,38.0,-100.00,North,1,3.0,21.0,71,0.00,,,0.00,47.000000,,2013-06-14 04:01:00,
2013-06-13 21:12:00,47.0,38.0,-100.00,North,1,3.0,21.0,71,0.00,,,0.00,47.000000,,2013-06-14 04:12:00,
2013-06-13 21:43:00,45.0,38.0,-100.00,SSW,200,2.0,11.0,75,0.00,,,0.00,6.000000,,2013-06-14 04:43:00,
2013-06-13 21:53:00,45.0,38.0,-100.00,SSW,200,2.0,11.0,75,0.00,,,0.00,6.000000,,2013-06-14 04:53:00,
2013-06-13 22:01:00,45.0,38.0,-100.00,SSW,200,2.0,11.0,75,0.00,,,0.00,6.000000,,2013-06-14 05:01:00,
2013-06-13 22:11:00,45.0,38.0,-100.00,SSW,200,2.0,11.0,75,0.00,,,0.00,6.000000,,2013-06-14 05:11:00,
2013-06-13 22:43:00,45.0,38.0,-100.00,West,271,2.0,14.0,77,0.00,,,0.00,0.000000,,2013-06-14 05:43:00,
2013-06-13 22:52:00,45.0,38.0,-100.00,West,271,2.0,14.0,77,0.00,,,0.00,0.000000,,2013-06-14 05:52:00,
2013-06-13 23:02:00,45.0,38.0,-100.00,West,271,2.0,14.0,77,0.00,,,0.00,0.000000,,2013-06-14 06:02:00,
2013-06-13 23:12:00,45.0,38.0,-100.00,West,271,2.0,14.0,77,0.00,,,0.00,0.000000,,2013-06-14 06:12:00,
2013-06-13 23:43:00,45.0,39.0,-100.00,North,10,2.0,11.0,79,0.00,,,0.00,0.000000,,2013-06-14 06:43:00,
2013-06-13 23:52:00,45.0,39.0,-100.00,North,10,2.0,11.0,79,0.00,,,0.00,0.000000,,2013-06-14 06:52:00,